Year,Month,Day,Hour,Minute,Value (Times are PST for temperature in C)
2011,05,19,00,00,8.80
2011,05,19,00,01,8.70
2011,05,19,00,02,8.70
2011,05,19,00,03,8.70
2011,05,19,00,04,8.70
2011,05,19,00,05,8.70
2011,05,19,00,06,8.70
2011,05,19,00,07,8.70
2011,05,19,00,08,8.70
2011,05,19,00,09,8.60
2011,05,19,00,10,8.60
2011,05,19,00,11,8.60
2011,05,19,00,12,8.50
2011,05,19,00,13,8.50
2011,05,19,00,14,8.50
2011,05,19,00,15,8.40
2011,05,19,00,16,8.40
2011,05,19,00,17,8.40
2011,05,19,00,18,8.40
2011,05,19,00,19,8.40
2011,05,19,00,20,8.30
2011,05,19,00,21,8.30
2011,05,19,00,22,8.30
2011,05,19,00,23,8.30
2011,05,19,00,24,8.30
2011,05,19,00,25,8.30
2011,05,19,00,26,8.30
2011,05,19,00,27,8.20
2011,05,19,00,28,8.20
2011,05,19,00,29,8.20
2011,05,19,00,30,8.20
2011,05,19,00,31,8.20
2011,05,19,00,32,8.20
2011,05,19,00,33,8.20
2011,05,19,00,34,8.20
2011,05,19,00,35,8.20
2011,05,19,00,36,8.20
2011,05,19,00,37,8.20
2011,05,19,00,38,8.20
2011,05,19,00,39,8.20
2011,05,19,00,40,8.20
2011,05,19,00,41,8.20
2011,05,19,00,42,8.20
2011,05,19,00,43,8.20
2011,05,19,00,44,8.20
2011,05,19,00,45,8.20
2011,05,19,00,46,8.20
2011,05,19,00,47,8.20
2011,05,19,00,48,8.20
2011,05,19,00,49,8.20
2011,05,19,00,50,8.20
2011,05,19,00,51,8.20
2011,05,19,00,52,8.20
2011,05,19,00,53,8.20
2011,05,19,00,54,8.20
2011,05,19,00,55,8.20
2011,05,19,00,56,8.10
2011,05,19,00,57,8.10
2011,05,19,00,58,8.00
2011,05,19,00,59,8.00
2011,05,19,01,00,8.00
2011,05,19,01,01,7.90
2011,05,19,01,02,7.90
2011,05,19,01,03,7.80
2011,05,19,01,04,7.80
2011,05,19,01,05,7.80
2011,05,19,01,06,7.80
2011,05,19,01,07,7.70
2011,05,19,01,08,7.70
2011,05,19,01,09,7.60
2011,05,19,01,10,7.60
2011,05,19,01,11,7.60
2011,05,19,01,12,7.50
2011,05,19,01,13,7.40
2011,05,19,01,14,7.40
2011,05,19,01,15,7.40
2011,05,19,01,16,7.30
2011,05,19,01,17,7.30
2011,05,19,01,18,7.30
2011,05,19,01,19,7.30
2011,05,19,01,20,7.30
2011,05,19,01,21,7.20
2011,05,19,01,22,7.20
2011,05,19,01,23,7.20
2011,05,19,01,24,7.20
2011,05,19,01,25,7.20
2011,05,19,01,26,7.10
2011,05,19,01,27,7.10
2011,05,19,01,28,7.10
2011,05,19,01,29,7.10
2011,05,19,01,30,7.10
2011,05,19,01,31,7.00
2011,05,19,01,32,7.00
2011,05,19,01,33,7.00
2011,05,19,01,34,7.00
2011,05,19,01,35,7.00
2011,05,19,01,36,7.00
2011,05,19,01,37,7.00
2011,05,19,01,38,7.00
2011,05,19,01,39,7.00
2011,05,19,01,40,7.00
2011,05,19,01,41,7.00
2011,05,19,01,42,6.90
2011,05,19,01,43,6.90
2011,05,19,01,44,6.90
2011,05,19,01,45,6.80
2011,05,19,01,46,6.80
2011,05,19,01,47,6.80
2011,05,19,01,48,6.80
2011,05,19,01,49,6.80
2011,05,19,01,50,6.80
2011,05,19,01,51,6.80
2011,05,19,01,52,6.80
2011,05,19,01,53,6.80
2011,05,19,01,54,6.80
2011,05,19,01,55,6.80
2011,05,19,01,56,6.80
2011,05,19,01,57,6.80
2011,05,19,01,58,6.80
2011,05,19,01,59,6.80
2011,05,19,02,00,6.80
2011,05,19,02,01,6.90
2011,05,19,02,02,6.90
2011,05,19,02,03,6.90
2011,05,19,02,04,6.90
2011,05,19,02,05,6.90
2011,05,19,02,06,6.90
2011,05,19,02,07,6.90
2011,05,19,02,08,6.80
2011,05,19,02,09,6.80
2011,05,19,02,10,6.80
2011,05,19,02,11,6.80
2011,05,19,02,12,6.80
2011,05,19,02,13,6.80
2011,05,19,02,14,6.80
2011,05,19,02,15,6.80
2011,05,19,02,16,6.80
2011,05,19,02,17,6.80
2011,05,19,02,18,6.80
2011,05,19,02,19,6.80
2011,05,19,02,20,6.80
2011,05,19,02,21,6.80
2011,05,19,02,22,6.80
2011,05,19,02,23,6.80
2011,05,19,02,24,6.80
2011,05,19,02,25,6.80
2011,05,19,02,26,6.80
2011,05,19,02,27,6.80
2011,05,19,02,28,6.80
2011,05,19,02,29,6.80
2011,05,19,02,30,6.70
2011,05,19,02,31,6.70
2011,05,19,02,32,6.70
2011,05,19,02,33,6.70
2011,05,19,02,34,6.70
2011,05,19,02,35,6.70
2011,05,19,02,36,6.70
2011,05,19,02,37,6.70
2011,05,19,02,38,6.60
2011,05,19,02,39,6.60
2011,05,19,02,40,6.60
2011,05,19,02,41,6.60
2011,05,19,02,42,6.60
2011,05,19,02,43,6.60
2011,05,19,02,44,6.60
2011,05,19,02,45,6.60
2011,05,19,02,46,6.60
2011,05,19,02,47,6.60
2011,05,19,02,48,6.50
2011,05,19,02,49,6.40
2011,05,19,02,50,6.40
2011,05,19,02,51,6.40
2011,05,19,02,52,6.40
2011,05,19,02,53,6.40
2011,05,19,02,54,6.40
2011,05,19,02,55,6.40
2011,05,19,02,56,6.40
2011,05,19,02,57,6.40
2011,05,19,02,58,6.40
2011,05,19,02,59,6.40
2011,05,19,03,00,6.40
2011,05,19,03,01,6.40
2011,05,19,03,02,6.40
2011,05,19,03,03,6.40
2011,05,19,03,04,6.40
2011,05,19,03,05,6.40
2011,05,19,03,06,6.30
2011,05,19,03,07,6.30
2011,05,19,03,08,6.30
2011,05,19,03,09,6.20
2011,05,19,03,10,6.20
2011,05,19,03,11,6.20
2011,05,19,03,12,6.20
2011,05,19,03,13,6.10
2011,05,19,03,14,6.10
2011,05,19,03,15,6.00
2011,05,19,03,16,6.00
2011,05,19,03,17,5.90
2011,05,19,03,18,5.90
2011,05,19,03,19,5.80
2011,05,19,03,20,5.80
2011,05,19,03,21,5.80
2011,05,19,03,22,5.70
2011,05,19,03,23,5.70
2011,05,19,03,24,5.70
2011,05,19,03,25,5.70
2011,05,19,03,26,5.70
2011,05,19,03,27,5.70
2011,05,19,03,28,5.70
2011,05,19,03,29,5.70
2011,05,19,03,30,5.70
2011,05,19,03,31,5.70
2011,05,19,03,32,5.70
2011,05,19,03,33,5.70
2011,05,19,03,34,5.70
2011,05,19,03,35,5.70
2011,05,19,03,36,5.70
2011,05,19,03,37,5.70
2011,05,19,03,38,5.70
2011,05,19,03,39,5.70
2011,05,19,03,40,5.60
2011,05,19,03,41,5.60
2011,05,19,03,42,5.60
2011,05,19,03,43,5.60
2011,05,19,03,44,5.50
2011,05,19,03,45,5.50
2011,05,19,03,46,5.50
2011,05,19,03,47,5.50
2011,05,19,03,48,5.40
2011,05,19,03,49,5.40
2011,05,19,03,50,5.40
2011,05,19,03,51,5.40
2011,05,19,03,52,5.40
2011,05,19,03,53,5.40
2011,05,19,03,54,5.40
2011,05,19,03,55,5.40
2011,05,19,03,56,5.30
2011,05,19,03,57,5.30
2011,05,19,03,58,5.30
2011,05,19,03,59,5.30
2011,05,19,04,00,5.30
2011,05,19,04,01,5.30
2011,05,19,04,02,5.30
2011,05,19,04,03,5.30
2011,05,19,04,04,5.30
2011,05,19,04,05,5.20
2011,05,19,04,06,5.20
2011,05,19,04,07,5.20
2011,05,19,04,08,5.20
2011,05,19,04,09,5.20
2011,05,19,04,10,5.20
2011,05,19,04,11,5.20
2011,05,19,04,12,5.10
2011,05,19,04,13,5.10
2011,05,19,04,14,5.10
2011,05,19,04,15,5.10
2011,05,19,04,16,5.10
2011,05,19,04,17,5.10
2011,05,19,04,18,5.20
2011,05,19,04,19,5.20
2011,05,19,04,20,5.20
2011,05,19,04,21,5.20
2011,05,19,04,22,5.20
2011,05,19,04,23,5.20
2011,05,19,04,24,5.20
2011,05,19,04,25,5.20
2011,05,19,04,26,5.30
2011,05,19,04,27,5.30
2011,05,19,04,28,5.30
2011,05,19,04,29,5.30
2011,05,19,04,30,5.30
2011,05,19,04,31,5.30
2011,05,19,04,32,5.30
2011,05,19,04,33,5.30
2011,05,19,04,34,5.30
2011,05,19,04,35,5.30
2011,05,19,04,36,5.30
2011,05,19,04,37,5.30
2011,05,19,04,38,5.30
2011,05,19,04,39,5.30
2011,05,19,04,40,5.30
2011,05,19,04,41,5.30
2011,05,19,04,42,5.40
2011,05,19,04,43,5.50
2011,05,19,04,44,5.50
2011,05,19,04,45,5.50
2011,05,19,04,46,5.50
2011,05,19,04,47,5.50
2011,05,19,04,48,5.50
2011,05,19,04,49,5.50
2011,05,19,04,50,5.50
2011,05,19,04,51,5.40
2011,05,19,04,52,5.40
2011,05,19,04,53,5.40
2011,05,19,04,54,5.40
2011,05,19,04,55,5.30
2011,05,19,04,56,5.30
2011,05,19,04,57,5.30
2011,05,19,04,58,5.30
2011,05,19,04,59,5.30
2011,05,19,05,00,5.20
2011,05,19,05,01,5.20
2011,05,19,05,02,5.20
2011,05,19,05,03,5.20
2011,05,19,05,04,5.10
2011,05,19,05,05,5.10
2011,05,19,05,06,5.10
2011,05,19,05,07,5.10
2011,05,19,05,08,5.10
2011,05,19,05,09,5.10
2011,05,19,05,10,5.10
2011,05,19,05,11,5.10
2011,05,19,05,12,5.10
2011,05,19,05,13,5.10
2011,05,19,05,14,5.10
2011,05,19,05,15,5.10
2011,05,19,05,16,5.10
2011,05,19,05,17,5.10
2011,05,19,05,18,5.10
2011,05,19,05,19,5.10
2011,05,19,05,20,5.10
2011,05,19,05,21,5.10
2011,05,19,05,22,5.10
2011,05,19,05,23,5.10
2011,05,19,05,24,5.10
2011,05,19,05,25,5.10
2011,05,19,05,26,5.10
2011,05,19,05,27,5.10
2011,05,19,05,28,5.10
2011,05,19,05,29,5.10
2011,05,19,05,30,5.10
2011,05,19,05,31,5.10
2011,05,19,05,32,5.10
2011,05,19,05,33,5.10
2011,05,19,05,34,5.10
2011,05,19,05,35,5.10
2011,05,19,05,36,5.10
2011,05,19,05,37,5.10
2011,05,19,05,38,5.10
2011,05,19,05,39,5.10
2011,05,19,05,40,5.10
2011,05,19,05,41,5.10
2011,05,19,05,42,5.10
2011,05,19,05,43,5.10
2011,05,19,05,44,5.10
2011,05,19,05,45,5.10
2011,05,19,05,46,5.10
2011,05,19,05,47,5.10
2011,05,19,05,48,5.10
2011,05,19,05,49,5.10
2011,05,19,05,50,5.20
2011,05,19,05,51,5.20
2011,05,19,05,52,5.20
2011,05,19,05,53,5.20
2011,05,19,05,54,5.20
2011,05,19,05,55,5.20
2011,05,19,05,56,5.20
2011,05,19,05,57,5.20
2011,05,19,05,58,5.20
2011,05,19,05,59,5.30
2011,05,19,06,00,5.30
2011,05,19,06,01,5.30
2011,05,19,06,02,5.30
2011,05,19,06,03,5.30
2011,05,19,06,04,5.30
2011,05,19,06,05,5.30
2011,05,19,06,06,5.40
2011,05,19,06,07,5.40
2011,05,19,06,08,5.40
2011,05,19,06,09,5.50
2011,05,19,06,10,5.50
2011,05,19,06,11,5.50
2011,05,19,06,12,5.50
2011,05,19,06,13,5.60
2011,05,19,06,14,5.70
2011,05,19,06,15,5.70
2011,05,19,06,16,5.70
2011,05,19,06,17,5.70
2011,05,19,06,18,5.70
2011,05,19,06,19,5.70
2011,05,19,06,20,5.70
2011,05,19,06,21,5.70
2011,05,19,06,22,5.70
2011,05,19,06,23,5.70
2011,05,19,06,24,5.70
2011,05,19,06,25,5.70
2011,05,19,06,26,5.70
2011,05,19,06,27,5.70
2011,05,19,06,28,5.70
2011,05,19,06,29,5.80
2011,05,19,06,30,5.90
2011,05,19,06,31,5.90
2011,05,19,06,32,6.00
2011,05,19,06,33,6.00
2011,05,19,06,34,6.10
2011,05,19,06,35,6.10
2011,05,19,06,36,6.20
2011,05,19,06,37,6.20
2011,05,19,06,38,6.20
2011,05,19,06,39,6.30
2011,05,19,06,40,6.40
2011,05,19,06,41,6.40
2011,05,19,06,42,6.40
2011,05,19,06,43,6.40
2011,05,19,06,44,6.60
2011,05,19,06,45,6.60
2011,05,19,06,46,6.60
2011,05,19,06,47,6.60
2011,05,19,06,48,6.60
2011,05,19,06,49,6.60
2011,05,19,06,50,6.70
2011,05,19,06,51,6.70
2011,05,19,06,52,6.80
2011,05,19,06,53,6.80
2011,05,19,06,54,6.90
2011,05,19,06,55,7.00
2011,05,19,06,56,7.10
2011,05,19,06,57,7.10
2011,05,19,06,58,7.20
2011,05,19,06,59,7.30
2011,05,19,07,00,7.30
2011,05,19,07,01,7.30
2011,05,19,07,02,7.50
2011,05,19,07,03,7.60
2011,05,19,07,04,7.70
2011,05,19,07,05,7.80
2011,05,19,07,06,7.90
2011,05,19,07,07,8.00
2011,05,19,07,08,8.10
2011,05,19,07,09,8.20
2011,05,19,07,10,8.20
2011,05,19,07,11,8.30
2011,05,19,07,12,8.30
2011,05,19,07,13,8.40
2011,05,19,07,14,8.40
2011,05,19,07,15,8.50
2011,05,19,07,16,8.50
2011,05,19,07,17,8.60
2011,05,19,07,18,8.70
2011,05,19,07,19,8.80
2011,05,19,07,20,8.90
2011,05,19,07,21,9.00
2011,05,19,07,22,9.20
2011,05,19,07,23,9.40
2011,05,19,07,24,9.50
2011,05,19,07,25,9.70
2011,05,19,07,26,9.80
2011,05,19,07,27,9.90
2011,05,19,07,28,10.00
2011,05,19,07,29,10.10
2011,05,19,07,30,10.20
2011,05,19,07,31,10.30
2011,05,19,07,32,10.40
2011,05,19,07,33,10.50
2011,05,19,07,34,10.60
2011,05,19,07,35,10.70
2011,05,19,07,36,10.70
2011,05,19,07,37,10.80
2011,05,19,07,38,10.90
2011,05,19,07,39,10.90
2011,05,19,07,40,11.00
2011,05,19,07,41,11.10
2011,05,19,07,42,11.20
2011,05,19,07,43,11.20
2011,05,19,07,44,11.30
2011,05,19,07,45,11.40
2011,05,19,07,46,11.40
2011,05,19,07,47,11.40
2011,05,19,07,48,11.40
2011,05,19,07,49,11.40
2011,05,19,07,50,11.40
2011,05,19,07,51,11.40
2011,05,19,07,52,11.50
2011,05,19,07,53,11.60
2011,05,19,07,54,11.60
2011,05,19,07,55,11.60
2011,05,19,07,56,11.60
2011,05,19,07,57,11.60
2011,05,19,07,58,11.60
2011,05,19,07,59,11.70
2011,05,19,08,00,11.70
2011,05,19,08,01,11.80
2011,05,19,08,02,11.80
2011,05,19,08,03,11.90
2011,05,19,08,04,11.90
2011,05,19,08,05,11.90
2011,05,19,08,06,12.00
2011,05,19,08,07,12.00
2011,05,19,08,08,12.10
2011,05,19,08,09,12.10
2011,05,19,08,10,12.20
2011,05,19,08,11,12.20
2011,05,19,08,12,12.20
2011,05,19,08,13,12.20
2011,05,19,08,14,12.20
2011,05,19,08,15,12.20
2011,05,19,08,16,12.20
2011,05,19,08,17,12.20
2011,05,19,08,18,12.20
2011,05,19,08,19,12.30
2011,05,19,08,20,12.30
2011,05,19,08,21,12.30
2011,05,19,08,22,12.30
2011,05,19,08,23,12.30
2011,05,19,08,24,12.40
2011,05,19,08,25,12.40
2011,05,19,08,26,12.40
2011,05,19,08,27,12.50
2011,05,19,08,28,12.50
2011,05,19,08,29,12.60
2011,05,19,08,30,12.60
2011,05,19,08,31,12.60
2011,05,19,08,32,12.60
2011,05,19,08,33,12.70
2011,05,19,08,34,12.80
2011,05,19,08,35,12.80
2011,05,19,08,36,12.80
2011,05,19,08,37,12.90
2011,05,19,08,38,13.00
2011,05,19,08,39,13.00
2011,05,19,08,40,13.10
2011,05,19,08,41,13.10
2011,05,19,08,42,13.10
2011,05,19,08,43,13.20
2011,05,19,08,44,13.30
2011,05,19,08,45,13.30
2011,05,19,08,46,13.40
2011,05,19,08,47,13.50
2011,05,19,08,48,13.50
2011,05,19,08,49,13.60
2011,05,19,08,50,13.60
2011,05,19,08,51,13.60
2011,05,19,08,52,13.70
2011,05,19,08,53,13.70
2011,05,19,08,54,13.70
2011,05,19,08,55,13.70
2011,05,19,08,56,13.70
2011,05,19,08,57,13.60
2011,05,19,08,58,13.60
2011,05,19,08,59,13.50
2011,05,19,09,00,13.40
2011,05,19,09,01,13.40
2011,05,19,09,02,13.40
2011,05,19,09,03,13.40
2011,05,19,09,04,13.40
2011,05,19,09,05,13.50
2011,05,19,09,06,13.50
2011,05,19,09,07,13.40
2011,05,19,09,08,13.50
2011,05,19,09,09,13.50
2011,05,19,09,10,13.50
2011,05,19,09,11,13.60
2011,05,19,09,12,13.60
2011,05,19,09,13,13.70
2011,05,19,09,14,13.70
2011,05,19,09,15,13.80
2011,05,19,09,16,13.80
2011,05,19,09,17,13.80
2011,05,19,09,18,13.80
2011,05,19,09,19,13.80
2011,05,19,09,20,13.80
2011,05,19,09,21,13.80
2011,05,19,09,22,13.80
2011,05,19,09,23,13.80
2011,05,19,09,24,13.70
2011,05,19,09,25,13.80
2011,05,19,09,26,13.80
2011,05,19,09,27,13.80
2011,05,19,09,28,13.80
2011,05,19,09,29,13.80
2011,05,19,09,30,13.80
2011,05,19,09,31,13.90
2011,05,19,09,32,13.90
2011,05,19,09,33,13.90
2011,05,19,09,34,14.00
2011,05,19,09,35,14.10
2011,05,19,09,36,14.10
2011,05,19,09,37,14.20
2011,05,19,09,38,14.20
2011,05,19,09,39,14.30
2011,05,19,09,40,14.30
2011,05,19,09,41,14.30
2011,05,19,09,42,14.40
2011,05,19,09,43,14.40
2011,05,19,09,44,14.40
2011,05,19,09,45,14.40
2011,05,19,09,46,14.30
2011,05,19,09,47,14.30
2011,05,19,09,48,14.30
2011,05,19,09,49,14.30
2011,05,19,09,50,14.40
2011,05,19,09,51,14.40
2011,05,19,09,52,14.50
2011,05,19,09,53,14.50
2011,05,19,09,54,14.50
2011,05,19,09,55,14.50
2011,05,19,09,56,14.50
2011,05,19,09,57,14.50
2011,05,19,09,58,14.60
2011,05,19,09,59,14.60
2011,05,19,10,00,14.60
2011,05,19,10,01,14.70
2011,05,19,10,02,14.80
2011,05,19,10,03,15.00
2011,05,19,10,04,15.10
2011,05,19,10,05,15.20
2011,05,19,10,06,15.30
2011,05,19,10,07,15.30
2011,05,19,10,08,15.30
2011,05,19,10,09,15.30
2011,05,19,10,10,15.30
2011,05,19,10,11,15.30
2011,05,19,10,12,15.30
2011,05,19,10,13,15.30
2011,05,19,10,14,15.30
2011,05,19,10,15,15.30
2011,05,19,10,16,15.30
2011,05,19,10,17,15.30
2011,05,19,10,18,15.30
2011,05,19,10,19,15.30
2011,05,19,10,20,15.30
2011,05,19,10,21,15.30
2011,05,19,10,22,15.30
2011,05,19,10,23,15.20
2011,05,19,10,24,15.10
2011,05,19,10,25,15.00
2011,05,19,10,26,15.00
2011,05,19,10,27,15.00
2011,05,19,10,28,15.00
2011,05,19,10,29,15.10
2011,05,19,10,30,15.10
2011,05,19,10,31,15.20
2011,05,19,10,32,15.20
2011,05,19,10,33,15.30
2011,05,19,10,34,15.30
2011,05,19,10,35,15.40
2011,05,19,10,36,15.40
2011,05,19,10,37,15.50
2011,05,19,10,38,15.50
2011,05,19,10,39,15.60
2011,05,19,10,40,15.70
2011,05,19,10,41,15.80
2011,05,19,10,42,15.80
2011,05,19,10,43,15.90
2011,05,19,10,44,15.80
2011,05,19,10,45,15.80
2011,05,19,10,46,15.80
2011,05,19,10,47,15.80
2011,05,19,10,48,15.80
2011,05,19,10,49,15.80
2011,05,19,10,50,15.80
2011,05,19,10,51,15.80
2011,05,19,10,52,15.80
2011,05,19,10,53,15.80
2011,05,19,10,54,15.80
2011,05,19,10,55,15.80
2011,05,19,10,56,15.90
2011,05,19,10,57,16.00
2011,05,19,10,58,16.10
2011,05,19,10,59,16.10
2011,05,19,11,00,16.10
2011,05,19,11,01,16.10
2011,05,19,11,02,16.10
2011,05,19,11,03,16.10
2011,05,19,11,04,16.10
2011,05,19,11,05,16.00
2011,05,19,11,06,15.90
2011,05,19,11,07,15.90
2011,05,19,11,08,15.90
2011,05,19,11,09,15.80
2011,05,19,11,10,15.80
2011,05,19,11,11,15.80
2011,05,19,11,12,15.70
2011,05,19,11,13,15.70
2011,05,19,11,14,15.70
2011,05,19,11,15,15.70
2011,05,19,11,16,15.70
2011,05,19,11,17,15.60
2011,05,19,11,18,15.60
2011,05,19,11,19,15.50
2011,05,19,11,20,15.60
2011,05,19,11,21,15.60
2011,05,19,11,22,15.50
2011,05,19,11,23,15.40
2011,05,19,11,24,15.50
2011,05,19,11,25,15.60
2011,05,19,11,26,15.70
2011,05,19,11,27,15.80
2011,05,19,11,28,15.90
2011,05,19,11,29,16.00
2011,05,19,11,30,16.10
2011,05,19,11,31,16.20
2011,05,19,11,32,16.30
2011,05,19,11,33,16.40
2011,05,19,11,34,16.50
2011,05,19,11,35,16.60
2011,05,19,11,36,16.70
2011,05,19,11,37,16.50
2011,05,19,11,38,15.30
2011,05,19,11,39,15.00
2011,05,19,11,40,14.80
2011,05,19,11,41,14.60
2011,05,19,11,42,14.50
2011,05,19,11,43,14.40
2011,05,19,11,44,14.30
2011,05,19,11,45,14.20
2011,05,19,11,46,14.30
2011,05,19,11,47,14.40
2011,05,19,11,48,14.50
2011,05,19,11,49,14.60
2011,05,19,11,50,14.60
2011,05,19,11,51,14.70
2011,05,19,11,52,14.70
2011,05,19,11,53,14.70
2011,05,19,11,54,14.80
2011,05,19,11,55,14.80
2011,05,19,11,56,14.80
2011,05,19,11,57,14.90
2011,05,19,11,58,14.90
2011,05,19,11,59,14.90
2011,05,19,12,00,14.90
2011,05,19,12,01,14.80
2011,05,19,12,02,14.70
2011,05,19,12,03,14.60
2011,05,19,12,04,14.40
2011,05,19,12,05,14.20
2011,05,19,12,06,14.10
2011,05,19,12,07,13.90
2011,05,19,12,08,13.70
2011,05,19,12,09,13.60
2011,05,19,12,10,13.50
2011,05,19,12,11,13.60
2011,05,19,12,12,13.60
2011,05,19,12,13,13.60
2011,05,19,12,14,13.60
2011,05,19,12,15,13.60
2011,05,19,12,16,13.50
2011,05,19,12,17,13.50
2011,05,19,12,18,13.50
2011,05,19,12,19,13.50
2011,05,19,12,20,13.50
2011,05,19,12,21,13.50
2011,05,19,12,22,13.50
2011,05,19,12,23,13.60
2011,05,19,12,24,13.70
2011,05,19,12,25,13.70
2011,05,19,12,26,13.70
2011,05,19,12,27,13.70
2011,05,19,12,28,13.70
2011,05,19,12,29,13.70
2011,05,19,12,30,13.70
2011,05,19,12,31,13.90
2011,05,19,12,32,14.00
2011,05,19,12,33,14.20
2011,05,19,12,34,14.20
2011,05,19,12,35,14.10
2011,05,19,12,36,14.00
2011,05,19,12,37,14.00
2011,05,19,12,38,13.90
2011,05,19,12,39,13.80
2011,05,19,12,40,13.80
2011,05,19,12,41,13.90
2011,05,19,12,42,13.90
2011,05,19,12,43,13.80
2011,05,19,12,44,13.80
2011,05,19,12,45,13.80
2011,05,19,12,46,13.90
2011,05,19,12,47,13.90
2011,05,19,12,48,13.90
2011,05,19,12,49,14.00
2011,05,19,12,50,14.00
2011,05,19,12,51,14.10
2011,05,19,12,52,14.10
2011,05,19,12,53,14.20
2011,05,19,12,54,14.20
2011,05,19,12,55,14.40
2011,05,19,12,56,14.50
2011,05,19,12,57,14.60
2011,05,19,12,58,14.70
2011,05,19,12,59,14.80
2011,05,19,13,00,14.90
2011,05,19,13,01,14.90
2011,05,19,13,02,14.90
2011,05,19,13,03,14.90
2011,05,19,13,04,14.80
2011,05,19,13,05,14.80
2011,05,19,13,06,14.60
2011,05,19,13,07,14.50
2011,05,19,13,08,14.50
2011,05,19,13,09,14.50
2011,05,19,13,10,14.60
2011,05,19,13,11,14.70
2011,05,19,13,12,14.80
2011,05,19,13,13,14.80
2011,05,19,13,14,14.90
2011,05,19,13,15,15.00
2011,05,19,13,16,15.10
2011,05,19,13,17,15.30
2011,05,19,13,18,15.30
2011,05,19,13,19,15.20
2011,05,19,13,20,15.20
2011,05,19,13,21,15.30
2011,05,19,13,22,15.30
2011,05,19,13,23,15.10
2011,05,19,13,24,14.90
2011,05,19,13,25,14.80
2011,05,19,13,26,14.80
2011,05,19,13,27,14.80
2011,05,19,13,28,14.80
2011,05,19,13,29,14.80
2011,05,19,13,30,14.70
2011,05,19,13,31,14.80
2011,05,19,13,32,14.80
2011,05,19,13,33,14.80
2011,05,19,13,34,14.80
2011,05,19,13,35,15.00
2011,05,19,13,36,14.90
2011,05,19,13,37,14.90
2011,05,19,13,38,14.90
2011,05,19,13,39,14.90
2011,05,19,13,40,15.00
2011,05,19,13,41,15.20
2011,05,19,13,42,15.30
2011,05,19,13,43,15.30
2011,05,19,13,44,15.40
2011,05,19,13,45,15.30
2011,05,19,13,46,15.30
2011,05,19,13,47,15.30
2011,05,19,13,48,15.50
2011,05,19,13,49,15.50
2011,05,19,13,50,15.50
2011,05,19,13,51,15.50
2011,05,19,13,52,15.50
2011,05,19,13,53,15.60
2011,05,19,13,54,15.50
2011,05,19,13,55,15.50
2011,05,19,13,56,15.50
2011,05,19,13,57,15.50
2011,05,19,13,58,15.50
2011,05,19,13,59,15.50
2011,05,19,14,00,15.60
2011,05,19,14,01,15.60
2011,05,19,14,02,15.60
2011,05,19,14,03,15.50
2011,05,19,14,04,15.50
2011,05,19,14,05,15.50
2011,05,19,14,06,15.60
2011,05,19,14,07,15.70
2011,05,19,14,08,15.70
2011,05,19,14,09,15.70
2011,05,19,14,10,15.70
2011,05,19,14,11,15.80
2011,05,19,14,12,15.80
2011,05,19,14,13,15.90
2011,05,19,14,14,16.00
2011,05,19,14,15,16.10
2011,05,19,14,16,16.10
2011,05,19,14,17,16.20
2011,05,19,14,18,16.20
2011,05,19,14,19,16.20
2011,05,19,14,20,16.20
2011,05,19,14,21,16.30
2011,05,19,14,22,16.20
2011,05,19,14,23,16.10
2011,05,19,14,24,16.10
2011,05,19,14,25,16.10
2011,05,19,14,26,16.10
2011,05,19,14,27,16.00
2011,05,19,14,28,16.10
2011,05,19,14,29,16.20
2011,05,19,14,30,16.30
2011,05,19,14,31,16.40
2011,05,19,14,32,16.30
2011,05,19,14,33,16.30
2011,05,19,14,34,16.20
2011,05,19,14,35,16.20
2011,05,19,14,36,16.20
2011,05,19,14,37,16.20
2011,05,19,14,38,16.20
2011,05,19,14,39,16.20
2011,05,19,14,40,16.20
2011,05,19,14,41,16.30
2011,05,19,14,42,16.40
2011,05,19,14,43,16.60
2011,05,19,14,44,16.50
2011,05,19,14,45,16.40
2011,05,19,14,46,16.50
2011,05,19,14,47,16.60
2011,05,19,14,48,16.70
2011,05,19,14,49,16.60
2011,05,19,14,50,16.60
2011,05,19,14,51,16.40
2011,05,19,14,52,16.50
2011,05,19,14,53,16.60
2011,05,19,14,54,16.40
2011,05,19,14,55,16.40
2011,05,19,14,56,16.40
2011,05,19,14,57,16.40
2011,05,19,14,58,16.40
2011,05,19,14,59,16.40
2011,05,19,15,00,16.50
2011,05,19,15,01,16.60
2011,05,19,15,02,16.70
2011,05,19,15,03,16.70
2011,05,19,15,04,16.70
2011,05,19,15,05,16.90
2011,05,19,15,06,17.00
2011,05,19,15,07,17.20
2011,05,19,15,08,17.40
2011,05,19,15,09,17.50
2011,05,19,15,10,17.70
2011,05,19,15,11,17.90
2011,05,19,15,12,18.20
2011,05,19,15,13,18.40
2011,05,19,15,14,18.60
2011,05,19,15,15,18.70
2011,05,19,15,16,18.80
2011,05,19,15,17,18.90
2011,05,19,15,18,18.90
2011,05,19,15,19,18.90
2011,05,19,15,20,18.90
2011,05,19,15,21,18.90
2011,05,19,15,22,18.80
2011,05,19,15,23,18.70
2011,05,19,15,24,18.70
2011,05,19,15,25,18.80
2011,05,19,15,26,18.90
2011,05,19,15,27,19.00
2011,05,19,15,28,19.00
2011,05,19,15,29,19.00
2011,05,19,15,30,19.10
2011,05,19,15,31,19.00
2011,05,19,15,32,18.90
2011,05,19,15,33,19.00
2011,05,19,15,34,19.10
2011,05,19,15,35,19.00
2011,05,19,15,36,18.90
2011,05,19,15,37,18.90
2011,05,19,15,38,18.90
2011,05,19,15,39,18.80
2011,05,19,15,40,18.70
2011,05,19,15,41,18.70
2011,05,19,15,42,18.80
2011,05,19,15,43,18.90
2011,05,19,15,44,18.90
2011,05,19,15,45,18.90
2011,05,19,15,46,19.00
2011,05,19,15,47,19.10
2011,05,19,15,48,19.10
2011,05,19,15,49,19.10
2011,05,19,15,50,19.10
2011,05,19,15,51,19.10
2011,05,19,15,52,19.20
2011,05,19,15,53,19.20
2011,05,19,15,54,19.20
2011,05,19,15,55,19.20
2011,05,19,15,56,19.20
2011,05,19,15,57,19.30
2011,05,19,15,58,19.40
2011,05,19,15,59,19.30
2011,05,19,16,00,19.30
2011,05,19,16,01,19.30
2011,05,19,16,02,19.30
2011,05,19,16,03,19.30
2011,05,19,16,04,19.30
2011,05,19,16,05,19.40
2011,05,19,16,06,19.40
2011,05,19,16,07,19.50
2011,05,19,16,08,19.40
2011,05,19,16,09,19.30
2011,05,19,16,10,19.30
2011,05,19,16,11,19.30
2011,05,19,16,12,19.40
2011,05,19,16,13,19.50
2011,05,19,16,14,19.50
2011,05,19,16,15,19.40
2011,05,19,16,16,19.40
2011,05,19,16,17,19.40
2011,05,19,16,18,19.40
2011,05,19,16,19,19.40
2011,05,19,16,20,19.40
2011,05,19,16,21,19.40
2011,05,19,16,22,19.50
2011,05,19,16,23,19.50
2011,05,19,16,24,19.60
2011,05,19,16,25,19.60
2011,05,19,16,26,19.60
2011,05,19,16,27,19.60
2011,05,19,16,28,19.50
2011,05,19,16,29,19.50
2011,05,19,16,30,19.40
2011,05,19,16,31,19.40
2011,05,19,16,32,19.40
2011,05,19,16,33,19.30
2011,05,19,16,34,19.20
2011,05,19,16,35,19.10
2011,05,19,16,36,18.90
2011,05,19,16,37,18.90
2011,05,19,16,38,19.00
2011,05,19,16,39,19.20
2011,05,19,16,40,19.30
2011,05,19,16,41,19.20
2011,05,19,16,42,19.10
2011,05,19,16,43,19.10
2011,05,19,16,44,19.10
2011,05,19,16,45,19.30
2011,05,19,16,46,19.40
2011,05,19,16,47,19.50
2011,05,19,16,48,19.60
2011,05,19,16,49,19.70
2011,05,19,16,50,19.80
2011,05,19,16,51,19.90
2011,05,19,16,52,19.90
2011,05,19,16,53,19.80
2011,05,19,16,54,19.80
2011,05,19,16,55,19.80
2011,05,19,16,56,19.90
2011,05,19,16,57,19.90
2011,05,19,16,58,20.00
2011,05,19,16,59,20.00
2011,05,19,17,00,19.90
2011,05,19,17,01,20.10
2011,05,19,17,02,20.10
2011,05,19,17,03,20.10
2011,05,19,17,04,20.10
2011,05,19,17,05,20.00
2011,05,19,17,06,19.90
2011,05,19,17,07,19.90
2011,05,19,17,08,19.90
2011,05,19,17,09,19.80
2011,05,19,17,10,19.80
2011,05,19,17,11,19.80
2011,05,19,17,12,19.80
2011,05,19,17,13,19.70
2011,05,19,17,14,19.70
2011,05,19,17,15,19.60
2011,05,19,17,16,19.60
2011,05,19,17,17,19.60
2011,05,19,17,18,19.70
2011,05,19,17,19,19.60
2011,05,19,17,20,19.40
2011,05,19,17,21,19.20
2011,05,19,17,22,19.10
2011,05,19,17,23,19.10
2011,05,19,17,24,19.10
2011,05,19,17,25,19.10
2011,05,19,17,26,19.30
2011,05,19,17,27,19.30
2011,05,19,17,28,19.20
2011,05,19,17,29,19.20
2011,05,19,17,30,19.10
2011,05,19,17,31,19.10
2011,05,19,17,32,19.00
2011,05,19,17,33,18.90
2011,05,19,17,34,18.90
2011,05,19,17,35,18.90
2011,05,19,17,36,18.90
2011,05,19,17,37,18.90
2011,05,19,17,38,19.00